EW9434 Weather Reports


time (UTC)temp
C
wind
direction
speed
KPH
gust
KPH
rain 1hr
cm
rain 24hr
cm
rain mn
cm
humidity
%
barometer
mb
20260505041605 20 286 6.4 16.1 0.00 0.00 0.00 57 1005.2
20260505041524 20 288 8.0 16.1 0.00 0.00 0.00 56 1005.6
20260505040957 20 286 8.0 17.7 0.00 0.00 0.00 57 1005.6
20260505040429 20 287 8.0 17.7 0.00 0.00 0.00 57 1005.7
20260505040043 20 286 8.0 17.7 0.00 0.00 0.00 57 1005.4
20260505035929 20 286 6.4 17.7 0.00 0.00 0.00 57 1005.7
20260505035429 20 287 6.4 16.1 0.00 0.00 0.00 58 1005.8
20260505034927 20 285 6.4 17.7 0.00 0.00 0.00 58 1005.8
20260505034654 20 286 6.4 19.3 0.00 0.00 0.00 58 1005.4
20260505034641 20 286 8.0 19.3 0.00 0.00 0.00 58 1005.8
20260505033919 20 285 6.4 19.3 0.00 0.00 0.00 58 1005.7
20260505033417 20 286 6.4 16.1 0.00 0.00 0.00 58 1005.7
20260505033106 20 288 4.8 14.5 0.00 0.00 0.00 58 1005.5
20260505032922 20 286 6.4 14.5 0.00 0.00 0.00 58 1005.8
20260505032357 20 286 6.4 24.1 0.00 0.00 0.00 58 1005.8
20260505031836 20 285 6.4 17.7 0.00 0.00 0.00 58 1005.7
20260505031525 20 286 6.4 17.7 0.00 0.00 0.00 58 1005.4
20260505031336 20 287 4.8 17.7 0.00 0.00 0.00 58 1005.7
20260505030821 20 287 4.8 14.5 0.00 0.00 0.00 58 1005.7
20260505030256 20 286 6.4 16.1 0.00 0.00 0.00 58 1005.7
20260505030059 20 286 4.8 16.1 0.00 0.00 0.00 58 1005.4
20260505025759 20 288 6.4 14.5 0.00 0.00 0.00 58 1005.6
20260505025248 20 286 6.4 16.1 0.00 0.00 0.00 57 1005.5
20260505024746 20 288 6.4 19.3 0.00 0.00 0.00 57 1005.5
20260505024510 20 288 4.8 19.3 0.00 0.00 0.00 57 1005.1
20260505024245 21 286 6.4 20.9 0.00 0.00 0.00 57 1005.4
20260505023744 21 290 6.4 20.9 0.00 0.00 0.00 57 1005.3
20260505023244 21 286 6.4 14.5 0.00 0.00 0.00 56 1005.2
20260505023041 20 287 4.8 14.5 0.00 0.00 0.00 56 1004.9
20260505022740 21 74 6.4 17.7 0.00 0.00 0.00 56 1005.2
20260505022241 21 115 6.4 17.7 0.00 0.00 0.00 56 1005.1
20260505021942 21 70 6.4 16.1 0.00 0.00 0.00 56 1005.0
20260505021637 21 89 4.8 16.1 0.00 0.00 0.00 56 1004.7
20260505021228 21 116 6.4 16.1 0.00 0.00 0.00 56 1005.0
20260505020704 21 103 6.4 17.7 0.00 0.00 0.00 56 1004.9
20260505020142 21 63 6.4 17.7 0.00 0.00 0.00 55 1004.7
20260505020005 21 53 4.8 17.7 0.00 0.00 0.00 55 1004.4
20260505015620 21 88 6.4 14.5 0.00 0.00 0.00 55 1004.7
20260505015100 21 78 4.8 14.5 0.00 0.00 0.00 55 1004.6
20260505014544 21 107 6.4 16.1 0.00 0.00 0.00 54 1004.6
20260505014522 21 96 4.8 14.5 0.00 0.00 0.00 54 1004.4
20260505014031 21 84 4.8 16.1 0.00 0.00 0.00 54 1004.6
20260505013751 21 59 6.4 12.9 0.00 0.00 0.00 54 1004.6
20260505013230 21 116 6.4 14.5 0.00 0.00 0.00 53 1004.5
20260505013042 21 109 4.8 14.5 0.00 0.00 0.00 53 1004.2
20260505012438 21 122 6.4 17.7 0.00 0.00 0.00 53 1004.5
20260505011912 21 81 4.8 12.9 0.00 0.00 0.00 52 1004.5
20260505011550 21 111 4.8 12.9 0.00 0.00 0.00 52 1004.1
20260505011407 22 122 6.4 12.9 0.00 0.00 0.00 52 1004.4
20260505010841 22 89 6.4 16.1 0.00 0.00 0.00 52 1004.4
20260505010321 22 134 6.4 16.1 0.00 0.00 0.00 51 1004.4
20260505010009 22 95 4.8 16.1 0.00 0.00 0.00 51 1004.1
20260505005823 22 84 6.4 16.1 0.00 0.00 0.00 51 1004.4
20260505005258 22 64 6.4 16.1 0.00 0.00 0.00 50 1004.4
20260505004735 22 137 6.4 14.5 0.00 0.00 0.00 50 1004.4
20260505004557 22 108 4.8 14.5 0.00 0.00 0.00 49 1004.1
20260505004209 22 120 6.4 19.3 0.00 0.00 0.00 50 1004.4
20260505003707 22 114 8.0 19.3 0.00 0.00 0.00 49 1004.3
20260505003426 22 94 6.4 16.1 0.00 0.00 0.00 49 1004.3
20260505003040 22 82 8.0 16.1 0.00 0.00 0.00 49 1004.1
20260505002641 22 61 6.4 16.1 0.00 0.00 0.00 48 1004.3
20260505002115 22 136 8.0 16.1 0.00 0.00 0.00 48 1004.4
20260505001733 23 66 8.0 17.7 0.00 0.00 0.00 47 1004.4
20260505001622 23 79 6.4 17.7 0.00 0.00 0.00 48 1004.4
20260505001541 22 76 6.4 16.1 0.00 0.00 0.00 48 1004.2
20260505000457 23 94 8.0 24.1 0.00 0.00 0.00 47 1004.5
20260504235929 23 131 8.0 24.1 0.00 0.00 0.00 47 1004.6
20260504235428 23 142 11.3 24.1 0.00 0.00 0.00 46 1004.5
20260504234903 23 157 11.3 24.1 0.00 0.00 0.00 46 1004.6
20260504234508 23 95 9.7 19.3 0.00 0.00 0.00 45 1004.6
20260504234338 23 147 9.7 25.7 0.00 0.00 0.00 45 1004.9
20260504233806 23 170 8.0 25.7 0.00 0.00 0.00 44 1004.9
20260504233305 23 66 12.9 33.8 0.00 0.00 0.00 43 1005.0
20260504233039 23 114 4.8 33.8 0.00 0.00 0.00 43 1004.7
20260504232738 23 143 14.5 33.8 0.00 0.00 0.00 42 1004.9
20260504232211 24 130 12.9 30.6 0.00 0.00 0.00 42 1005.0
20260504231651 24 120 12.9 35.4 0.00 0.00 0.00 42 1004.9
20260504231540 23 124 16.1 35.4 0.00 0.00 0.00 42 1004.7
20260504231127 24 140 12.9 35.4 0.00 0.00 0.00 42 1004.9
20260504230613 24 141 12.9 30.6 0.00 0.00 0.00 43 1004.7
20260504230112 24 80 11.3 30.6 0.00 0.00 0.00 47 1004.9
20260504230046 23 88 9.7 30.6 0.00 0.00 0.00 47 1004.7
20260504225547 23 105 9.7 25.7 0.00 0.00 0.00 46 1005.1
20260504225019 23 87 8.0 19.3 0.00 0.00 0.00 49 1005.2
20260504224508 23 111 6.4 19.3 0.00 0.00 0.00 50 1004.9
20260504224450 23 147 6.4 19.3 0.00 0.00 0.00 50 1005.2
20260504223947 23 119 4.8 16.1 0.00 0.00 0.00 50 1005.3
20260504223645 23 155 4.8 9.7 0.00 0.00 0.00 50 1005.3
20260504223047 23 90 3.2 9.7 0.00 0.00 0.00 50 1005.1
20260504222856 23 104 4.8 16.1 0.00 0.00 0.00 50 1005.3
20260504222345 23 80 6.4 17.7 0.00 0.00 0.00 49 1005.5
20260504221842 23 132 6.4 17.7 0.00 0.00 0.00 48 1005.5
20260504221535 23 84 6.4 11.3 0.00 0.00 0.00 48 1005.2
20260504221346 23 135 4.8 12.9 0.00 0.00 0.00 48 1005.4
20260504221038 23 154 6.4 12.9 0.00 0.00 0.00 48 1005.5
20260504220255 23 141 6.4 12.9 0.00 0.00 0.00 48 1005.5
20260504220003 23 169 4.8 11.3 0.00 0.00 0.00 49 1005.3
20260504215726 23 80 6.4 14.5 0.00 0.00 0.00 49 1005.5
20260504215446 23 79 4.8 14.5 0.00 0.00 0.00 47 1005.3
20260504214720 23 97 4.8 16.1 0.00 0.00 0.00 47 1005.7
20260504214516 22 191 3.2 16.1 0.00 0.00 0.00 49 1005.6
20260504214218 23 200 8.0 16.1 0.00 0.00 0.00 49 1006.0
20260504213651 23 193 8.0 22.5 0.00 0.00 0.00 47 1005.9
20260504213123 23 158 8.0 22.5 0.00 0.00 0.00 48 1006.0
20260504213031 23 163 6.4 19.3 0.00 0.00 0.00 47 1005.9
20260504212621 23 132 8.0 19.3 0.00 0.00 0.00 47 1006.1
20260504212057 23 186 6.4 17.7 0.00 0.00 0.00 50 1006.1
20260504211544 23 99 8.0 17.7 0.00 0.00 0.00 48 1006.0
20260504211527 23 142 8.0 17.7 0.00 0.00 0.00 48 1006.2
20260504211027 23 138 6.4 22.5 0.00 0.00 0.00 49 1006.2
20260504210501 23 87 8.0 22.5 0.00 0.00 0.00 52 1006.3
20260504210020 23 179 6.4 27.4 0.00 0.00 0.00 50 1006.3
20260504205934 23 202 9.7 29.0 0.00 0.00 0.00 50 1006.5
20260504205428 23 136 8.0 29.0 0.00 0.00 0.00 50 1006.5
20260504204929 23 121 8.0 25.7 0.00 0.00 0.00 51 1006.5
20260504204621 23 164 8.0 25.7 0.00 0.00 0.00 50 1006.6
20260504204607 22 185 6.4 25.7 0.00 0.00 0.00 51 1006.4
20260504203835 22 135 9.7 25.7 0.00 0.00 0.00 51 1006.7
20260504203533 23 133 11.3 25.7 0.00 0.00 0.00 51 1006.8
20260504203136 22 208 9.7 25.7 0.00 0.00 0.00 50 1006.8
20260504202805 22 201 11.3 29.0 0.00 0.00 0.00 51 1007.0
20260504202239 22 131 11.3 29.0 0.00 0.00 0.00 50 1006.9
20260504201737 22 144 9.7 24.1 0.00 0.00 0.00 50 1006.9
20260504201554 22 118 8.0 22.5 0.00 0.00 0.00 50 1006.7
20260504201434 23 229 9.7 24.1 0.00 0.00 0.00 49 1006.9
20260504200706 23 86 8.0 20.9 0.00 0.00 0.00 50 1006.9
20260504200140 23 7 9.7 22.5 0.00 0.00 0.00 52 1006.9
20260504200047 22 101 6.4 22.5 0.00 0.00 0.00 54 1006.7
20260504195635 22 113 9.7 22.5 0.00 0.00 0.00 52 1007.0
20260504195108 22 147 9.7 29.0 0.00 0.00 0.00 58 1007.0
20260504194606 21 154 9.7 29.0 0.00 0.00 0.00 56 1007.2
20260504194514 21 166 11.3 29.0 0.00 0.00 0.00 55 1007.1
20260504194106 21 106 8.0 19.3 0.00 0.00 0.00 56 1007.3
20260504193550 21 120 6.4 19.3 0.00 0.00 0.00 58 1007.5
20260504193055 21 102 6.4 12.9 0.00 0.00 0.00 60 1007.6
20260504193022 20 155 6.4 14.5 0.00 0.00 0.00 60 1007.5
20260504192526 20 151 6.4 14.5 0.00 0.00 0.00 60 1007.6
20260504192021 20 124 4.8 12.9 0.00 0.00 0.00 63 1007.6
20260504191723 20 111 3.2 8.0 0.00 0.00 0.00 63 1007.9
20260504191537 19 116 3.2 11.3 0.00 0.00 0.00 63 1007.6
20260504191217 19 166 4.8 12.9 0.00 0.00 0.00 67 1008.2
20260504190452 19 140 6.4 11.3 0.00 0.00 0.00 64 1008.1
20260504190002 19 38 4.8 14.5 0.00 0.00 0.00 63 1007.8
20260504185917 20 86 6.4 16.1 0.00 0.00 0.00 63 1007.9
20260504185412 20 130 8.0 16.1 0.00 0.00 0.00 61 1008.3
20260504184913 20 185 8.0 16.1 0.00 0.00 0.00 60 1008.5
20260504184604 20 138 8.0 16.1 0.00 0.00 0.00 59 1008.4
20260504184511 20 135 9.7 16.1 0.00 0.00 0.00 60 1008.5
20260504183841 20 117 9.7 24.1 0.00 0.00 0.00 59 1008.2
20260504183312 20 102 11.3 32.2 0.00 0.00 0.00 58 1008.2
20260504183003 20 86 12.9 32.2 0.00 0.00 0.00 58 1008.1
20260504182813 20 115 11.3 27.4 0.00 0.00 0.00 59 1008.1
20260504182527 20 114 11.3 27.4 0.00 0.00 0.00 58 1008.1
20260504181801 21 78 9.7 25.7 0.00 0.00 0.00 56 1007.8
20260504181535 21 124 8.0 20.9 0.00 0.00 0.00 57 1007.8
20260504181257 21 159 8.0 17.7 0.00 0.00 0.00 56 1007.8
20260504180755 21 157 9.7 24.1 0.00 0.00 0.00 58 1007.6
20260504180231 21 119 11.3 30.6 0.00 0.00 0.00 56 1007.5
20260504180056 21 160 9.7 29.0 0.00 0.00 0.00 56 1007.5
20260504175703 21 112 11.3 30.6 0.00 0.00 0.00 56 1007.4
20260504175137 21 134 9.7 22.5 0.00 0.00 0.00 57 1007.4
20260504174612 21 130 8.0 22.5 0.00 0.00 0.00 57 1007.2
20260504174546 21 72 6.4 22.5 0.00 0.00 0.00 60 1007.2
20260504174335 21 105 8.0 17.7 0.00 0.00 0.00 58 1007.3
20260504173604 21 121 8.0 20.9 0.00 0.00 0.00 59 1007.2
20260504173044 20 170 8.0 20.9 0.00 0.00 0.00 60 1007.4
20260504173013 20 156 9.7 20.9 0.00 0.00 0.00 60 1007.4
20260504172543 20 64 9.7 20.9 0.00 0.00 0.00 60 1007.6
20260504172307 20 103 9.7 22.5 0.00 0.00 0.00 61 1007.6
20260504171544 20 109 8.0 19.3 0.00 0.00 0.00 62 1007.5
20260504171511 20 107 4.8 17.7 0.00 0.00 0.00 61 1007.6
20260504171015 20 112 6.4 16.1 0.00 0.00 0.00 60 1007.4
20260504170503 20 116 8.0 19.3 0.00 0.00 0.00 60 1007.5
20260504160217 18 97 3.2 11.3 0.00 0.00 0.00 64 1008.2
20260504150943 17 149 4.8 16.1 0.00 0.00 0.00 64 1008.4
20260504150441 17 119 4.8 16.1 0.00 0.00 0.00 66 1008.5
20260504150106 17 119 3.2 8.0 0.00 0.00 0.00 65 1008.6
20260504141329 16 72 8.0 19.3 0.00 0.00 0.00 66 1008.5
20260504140805 15 145 8.0 22.5 0.00 0.00 0.00 66 1008.7
20260504140308 15 89 8.0 22.5 0.00 0.00 0.00 65 1008.9
20260504130321 13 273 6.4 20.9 0.00 0.00 0.00 69 1008.9
20260504110339 11 286 3.2 14.5 0.00 0.00 0.00 68 1008.9
20260504100159 11 285 1.6 6.4 0.00 0.00 0.00 66 1009.3
20260504090136 11 284 1.6 6.4 0.00 0.00 0.00 63 1009.7
20260504081728 11 285 3.2 11.3 0.00 0.00 0.00 62 1009.8
20260504081501 11 285 3.2 9.7 0.00 0.00 0.00 62 1010.2
20260504081202 11 284 1.6 9.7 0.00 0.00 0.00 62 1009.9
20260504080858 11 284 1.6 11.3 0.00 0.00 0.00 61 1009.9
20260504080353 11 284 3.2 11.3 0.00 0.00 0.00 61 1009.9
20260504060210 11 284 1.6 8.0 0.00 0.00 0.00 60 1011.0
20260504050326 11 285 1.6 6.4 0.00 0.00 0.00 60 1011.5
20260504045802 12 285 1.6 6.4 0.00 0.00 0.00 59 1011.5
20260504045514 12 285 1.6 6.4 0.00 0.00 0.00 59 1011.5
20260504044756 12 284 1.6 6.4 0.00 0.00 0.00 59 1011.6
20260504044523 11 284 1.6 6.4 0.00 0.00 0.00 59 1012.1
20260504044245 12 285 1.6 6.4 0.00 0.00 0.00 59 1011.6
20260504043716 12 285 1.6 6.4 0.00 0.00 0.00 58 1011.7
20260504043215 12 285 1.6 6.4 0.00 0.00 0.00 58 1011.7
20260504043135 12 285 1.6 8.0 0.00 0.00 0.00 58 1011.7
20260504043035 12 285 1.6 6.4 0.00 0.00 0.00 58 1012.2
20260504042140 12 285 1.6 8.0 0.00 0.00 0.00 58 1011.7
20260504041904 12 285 1.6 6.4 0.00 0.00 0.00 58 1011.8